Terminal Aerodrome Forecast
Issued by NWS Billings, MT

Home | Current Version | Previous Version | Graphics & Text | Print | Product List | Glossary On
Versions: 1 2 3 4 5 6 7 8 9 10 11 12 13 14 15 16 17 18 19 20 21 22 23 24 25 26 27
000
FTUS45 KBYZ 212320
TAFMLS
TAF
KMLS 212320Z 2200/2224 16015G30KT P6SM VCTS SCT050CB BKN200
     FM220200 28015G25KT P6SM VCTS BKN040CB OVC150
     FM220700 27011KT P6SM VCSH SCT050 BKN120
     FM221300 27010KT P6SM SCT080 BKN200=

USA.gov is the U.S. government's official web portal to all federal, state and local government web resources and services.